Regional Weather Roundup
Issued by NWS Jackson, KY

Home | Current Version | Previous Version | Text Only | Print | Product List | Glossary On
Versions: 1 2 3 4 5 6 7 8 9 10 11 12 13 14 15 16 17 18 19 20 21 22 23 24 25 26 27 28 29 30 31 32 33 34 35 36 37 38 39 40 41 42 43 44 45 46 47 48 49 50
000
ASUS43 KJKL 181319
RWRJKL

EAST KENTUCKY HOURLY WEATHER ROUNDUP
NATIONAL WEATHER SERVICE JACKSON KY
900 AM EDT THU SEP 18 2014

NOTE: "FAIR" INDICATES FEW OR NO CLOUDS BELOW 12,000 FEET WITH
NO SIGNIFICANT WEATHER AND/OR OBSTRUCTIONS TO VISIBILITY.

* THESE REPORTS ARE NOT UNDER NWS QUALITY CONTROL AND MAY NOT
  REPORT WEATHER SUCH AS PRECIPITATION AND FOG.

KYZ079-080-083-085-087-088-110-112-115-119-120-181400
...EASTERN KENTUCKY...

CITY           SKY/WX    TMP DP  RH WIND       PRES   REMARKS
JACKSON        PTSUNNY   58  54  86 CALM      30.05R
LONDON         CLOUDY    60  55  83 CALM      30.04S
MONTICELLO*    MOSUNNY   62  59  90 NE5       30.04S
WILLIAMSBURG*  MOSUNNY   55  55 100 CALM      30.04R
MIDDLESBORO*   CLOUDY    57  57  99 CALM      30.05R FOG
HARLAN APT*    CLOUDY    55  55 100 MISG      30.05R
HAZARD APT*    FOG       55  55 100 CALM      30.06R VSB 0
BLACK MTN*       N/A     52  50  93 N8          N/A
PIKEVILLE APT* FOG       55  55 100 S3        30.05R VSB 0
BIG SANDY*     FOG       54  54 100 CALM      30.05R VSB<1/4
MOREHEAD APT*  MOSUNNY   59  52  77 CALM      30.08R
$$

KYZ035-036-041-042-044-050-067-078-099-181400
...CENTRAL KENTUCKY...

CITY           SKY/WX    TMP DP  RH WIND       PRES   REMARKS
MT STERLING*   SUNNY     55  52  88 CALM      30.07R
FLEMING/MASON* PTSUNNY   54  49  84 NE3       30.08R
DANVILLE*      CLOUDY    59  54  82 NE7       30.05S
RICHMOND*      CLOUDY    57  54  88 CALM      30.05R
LEXINGTON      SUNNY     61  51  70 NE8       30.06R
FRANKFORT      CLOUDY    57  51  80 NE3       30.06R
$$

KYZ091>093-OHZ055-061-077-WVZ005-015-034-035-042-181400
...SOUTHERN OHIO/WEST VIRGINIA...

CITY           SKY/WX    TMP DP  RH WIND       PRES   REMARKS
COVINGTON      SUNNY     57  50  77 NE5       30.07R
COLUMBUS       SUNNY     56  49  77 N3        30.06S
DAYTON         SUNNY     55  50  83 N5        30.09R
WILMINGTON     SUNNY     54  47  77 NE5       30.07R
HUNTINGTON     CLOUDY    56  54  93 VRB3      30.04R
CHARLESTON     CLOUDY    57  56  96 CALM      30.03S FOG
PINEVILLE*     CLOUDY    59  59 100 MISG      30.10R FOG
BECKLEY        MOSUNNY   59  53  80 CALM      30.06R
BLUEFIELD      CLOUDY    57  53  86 W3        30.08R FOG
$$

VAZ002-007-008-TNZ017-027-036-066-071-181400
...SOUTHWEST VIRGINIA/EAST TENNESSEE...

CITY           SKY/WX    TMP DP  RH WIND       PRES   REMARKS
WISE*          PTSUNNY   57  57 100 N5        30.08R
JONESVILLE*    PTSUNNY   55  55 100 CALM      30.07R
ABINGDON*      PTSUNNY   58  58 100 CALM      30.06R
BRISTOL        FOG       57  55  93 CALM      30.04R VSB 1
KNOXVILLE      PTSUNNY   64  57  78 NE5       30.01R
OAK RIDGE      MOSUNNY   63  58  83 CALM      30.03R
CROSSVILLE     PTSUNNY   60  54  80 CALM      30.04R
NASHVILLE      MOSUNNY   64  58  80 E5        30.01R
$$

...KEY TO REMARKS...
VSB - VISIBILITY IN MILES
WCI - WIND CHILL INDEX
HX  - HEAT INDEX

$$


USA.gov is the U.S. government's official web portal to all federal, state and local government web resources and services.